User: anonymous   Login
Location: Fort Wayne
(41.1310°N, 85.1290°W)
Time: 19:05:57
(UTC-04:00)
Language:

SR - Orbit

View from above orbital plane
View from above orbital plane
View from above satellite
View from above satellite

Ground track
Ground track

The orbit data is extracted from the following two-line orbital elements,

1 00046U 60007B   14295.09998388  .00001205  00000-0  26215-3 0  7656
2 00046 066.6922 224.1527 0219825 231.3532 126.7723 14.47912119839885
Epoch (UTC): 22 October 2014 02:23:58
Eccentricity: 0.0219825
inclination: 66.6922°
perigee height: 576 km
apogee height: 889 km
right ascension of ascending node: 224.1527°
argument of perigee: 231.3532°
revolutions per day: 14.47912119
mean anomaly at epoch: 126.7723°
orbit number at epoch: 83988

The dashed part of the orbit path shows where the satellite is in the earth's shadow,  

DLR